TimeEDT,TemperatureF,Dew PointF,Humidity,Sea Level PressureIn,VisibilityMPH,Wind Direction,Wind SpeedMPH,Gust SpeedMPH,PrecipitationIn,Events,Conditions,WindDirDegrees,DateUTC
12:15 AM,35.6,28.4,75,30.07,10.0,West,6.9,-,N/A,,Clear,270,2013-03-13 04:15:00
12:35 AM,35.6,28.4,75,30.07,10.0,West,8.1,-,N/A,,Clear,280,2013-03-13 04:35:00
12:55 AM,35.6,28.4,75,30.07,10.0,West,5.8,-,N/A,,Mostly Cloudy,280,2013-03-13 04:55:00
1:15 AM,35.6,28.4,75,30.07,10.0,West,6.9,-,N/A,,Scattered Clouds,260,2013-03-13 05:15:00
1:55 AM,35.6,28.4,75,30.08,10.0,NW,11.5,-,N/A,,Scattered Clouds,310,2013-03-13 05:55:00
2:15 AM,35.6,28.4,75,30.08,10.0,NW,8.1,-,N/A,,Scattered Clouds,320,2013-03-13 06:15:00
2:35 AM,33.8,30.2,87,30.08,10.0,NNW,6.9,-,N/A,,Overcast,340,2013-03-13 06:35:00
2:55 AM,33.8,32.0,93,30.08,10.0,NNW,4.6,-,N/A,,Overcast,330,2013-03-13 06:55:00
3:15 AM,33.8,32.0,93,30.08,10.0,Calm,Calm,-,N/A,,Overcast,0,2013-03-13 07:15:00
3:35 AM,33.8,32.0,93,30.07,10.0,West,3.5,-,N/A,,Overcast,270,2013-03-13 07:35:00
3:55 AM,33.8,32.0,93,30.06,10.0,Calm,Calm,-,N/A,,Overcast,0,2013-03-13 07:55:00
4:15 AM,32.0,32.0,100,30.06,10.0,West,5.8,-,N/A,,Mostly Cloudy,270,2013-03-13 08:15:00
4:55 AM,32.0,32.0,100,30.05,10.0,West,6.9,-,N/A,,Scattered Clouds,270,2013-03-13 08:55:00
5:15 AM,32.0,30.2,93,30.05,10.0,West,6.9,-,N/A,,Mostly Cloudy,260,2013-03-13 09:15:00
5:35 AM,33.8,30.2,87,30.06,10.0,WNW,9.2,-,N/A,Snow,Light Snow,290,2013-03-13 09:35:00
5:55 AM,33.8,30.2,87,30.06,10.0,WNW,11.5,18.4,N/A,Snow,Light Snow,290,2013-03-13 09:55:00
6:15 AM,33.8,28.4,81,30.06,10.0,WNW,9.2,-,N/A,,Overcast,290,2013-03-13 10:15:00
6:35 AM,33.8,28.4,81,30.05,10.0,WNW,6.9,-,N/A,,Overcast,290,2013-03-13 10:35:00
6:55 AM,32.0,28.4,87,30.06,10.0,WNW,6.9,-,N/A,,Mostly Cloudy,290,2013-03-13 10:55:00
7:15 AM,32.0,28.4,87,30.06,10.0,West,8.1,-,N/A,,Overcast,280,2013-03-13 11:15:00
7:35 AM,32.0,26.6,80,30.07,10.0,West,12.7,20.7,N/A,,Overcast,280,2013-03-13 11:35:00
7:55 AM,33.8,24.8,70,30.07,10.0,WNW,9.2,17.3,N/A,,Overcast,290,2013-03-13 11:55:00
8:15 AM,32.0,26.6,80,30.10,4.0,NW,19.6,32.2,N/A,Snow,Light Snow,310,2013-03-13 12:15:00
8:35 AM,30.2,26.6,86,30.11,2.0,NW,15.0,23.0,N/A,Snow,Light Snow,320,2013-03-13 12:35:00
8:55 AM,30.2,26.6,86,30.11,10.0,NW,11.5,-,N/A,,Overcast,310,2013-03-13 12:55:00
9:15 AM,30.2,24.8,80,30.12,10.0,WNW,15.0,20.7,N/A,,Overcast,300,2013-03-13 13:15:00
9:35 AM,32.0,23.0,69,30.13,10.0,NW,15.0,24.2,N/A,,Overcast,310,2013-03-13 13:35:00
9:55 AM,32.0,23.0,69,30.14,10.0,NW,12.7,19.6,N/A,,Scattered Clouds,310,2013-03-13 13:55:00
10:15 AM,32.0,23.0,69,30.15,10.0,NW,17.3,24.2,N/A,,Mostly Cloudy,310,2013-03-13 14:15:00
10:35 AM,32.0,21.2,64,30.15,10.0,WNW,13.8,23.0,N/A,,Overcast,300,2013-03-13 14:35:00
10:55 AM,32.0,21.2,64,30.17,10.0,NW,12.7,21.9,N/A,,Overcast,310,2013-03-13 14:55:00
11:15 AM,32.0,21.2,64,30.18,10.0,WNW,9.2,19.6,N/A,,Overcast,300,2013-03-13 15:15:00
11:35 AM,30.2,23.0,75,30.19,5.0,NNW,12.7,-,N/A,Snow,Light Snow,330,2013-03-13 15:35:00
11:55 AM,32.0,21.2,64,30.19,10.0,NW,16.1,23.0,N/A,Snow,Light Snow,320,2013-03-13 15:55:00
12:15 PM,32.0,19.4,60,30.20,10.0,WNW,16.1,25.3,N/A,,Overcast,300,2013-03-13 16:15:00
12:35 PM,32.0,19.4,60,30.20,10.0,WNW,13.8,24.2,N/A,,Overcast,300,2013-03-13 16:35:00
12:55 PM,32.0,19.4,60,30.21,10.0,NW,13.8,24.2,N/A,,Overcast,320,2013-03-13 16:55:00
1:15 PM,30.2,23.0,75,30.22,5.0,WNW,18.4,23.0,N/A,Snow,Light Snow,290,2013-03-13 17:15:00
1:35 PM,32.0,19.4,60,30.22,10.0,NW,12.7,21.9,N/A,,Overcast,320,2013-03-13 17:35:00
1:55 PM,32.0,19.4,60,30.22,10.0,NW,12.7,17.3,N/A,,Overcast,310,2013-03-13 17:55:00
2:15 PM,32.0,21.2,64,30.23,5.0,WNW,10.4,18.4,N/A,Snow,Light Snow,300,2013-03-13 18:15:00
2:35 PM,32.0,21.2,64,30.23,10.0,NW,8.1,19.6,N/A,,Overcast,320,2013-03-13 18:35:00
2:55 PM,32.0,21.2,64,30.23,10.0,WNW,9.2,24.2,N/A,,Overcast,300,2013-03-13 18:55:00
3:15 PM,32.0,19.4,60,30.23,10.0,WNW,13.8,21.9,N/A,,Overcast,300,2013-03-13 19:15:00
3:35 PM,33.8,21.2,60,30.23,10.0,WNW,13.8,24.2,N/A,,Overcast,290,2013-03-13 19:35:00
3:55 PM,32.0,21.2,64,30.23,10.0,NW,11.5,18.4,N/A,,Overcast,310,2013-03-13 19:55:00
4:15 PM,32.0,19.4,60,30.24,10.0,NW,17.3,23.0,N/A,,Overcast,320,2013-03-13 20:15:00
4:35 PM,33.8,19.4,56,30.24,10.0,WNW,15.0,24.2,N/A,,Overcast,300,2013-03-13 20:35:00
4:55 PM,32.0,19.4,60,30.25,10.0,NNW,13.8,23.0,N/A,,Overcast,340,2013-03-13 20:55:00
5:15 PM,32.0,21.2,64,30.25,10.0,NW,11.5,17.3,N/A,,Overcast,310,2013-03-13 21:15:00
5:35 PM,32.0,19.4,60,30.26,10.0,NW,17.3,23.0,N/A,,Overcast,310,2013-03-13 21:35:00
5:55 PM,32.0,21.2,64,30.26,10.0,NW,12.7,24.2,N/A,,Overcast,310,2013-03-13 21:55:00
6:15 PM,32.0,21.2,64,30.26,10.0,NW,12.7,20.7,N/A,,Overcast,310,2013-03-13 22:15:00
6:35 PM,32.0,21.2,64,30.27,10.0,NW,12.7,18.4,N/A,,Overcast,320,2013-03-13 22:35:00
6:55 PM,32.0,21.2,64,30.28,10.0,WNW,11.5,21.9,N/A,Snow,Light Snow,300,2013-03-13 22:55:00
7:15 PM,30.2,23.0,75,30.29,4.0,NW,9.2,-,N/A,Snow,Light Snow,320,2013-03-13 23:15:00
7:35 PM,30.2,23.0,75,30.29,10.0,NNW,8.1,-,N/A,Snow,Light Snow,330,2013-03-13 23:35:00
7:55 PM,30.2,23.0,75,30.30,10.0,WNW,9.2,-,N/A,,Overcast,300,2013-03-13 23:55:00
8:15 PM,30.2,23.0,75,30.30,10.0,WNW,10.4,-,N/A,,Overcast,300,2013-03-14 00:15:00
8:35 PM,30.2,23.0,75,30.30,10.0,WNW,8.1,-,N/A,,Overcast,300,2013-03-14 00:35:00
8:55 PM,30.2,23.0,75,30.31,10.0,NW,10.4,21.9,N/A,Snow,Light Snow,320,2013-03-14 00:55:00
9:15 PM,30.2,21.2,69,30.31,10.0,NW,9.2,-,N/A,,Overcast,320,2013-03-14 01:15:00
9:35 PM,30.2,23.0,75,30.31,10.0,NW,5.8,-,N/A,Snow,Light Snow,310,2013-03-14 01:35:00
9:55 PM,30.2,24.8,80,30.32,10.0,WNW,5.8,-,N/A,,Overcast,300,2013-03-14 01:55:00
10:15 PM,30.2,24.8,80,30.32,10.0,NW,11.5,-,N/A,,Overcast,320,2013-03-14 02:15:00
10:35 PM,30.2,23.0,75,30.33,10.0,WNW,9.2,-,N/A,,Overcast,300,2013-03-14 02:35:00
10:55 PM,30.2,21.2,69,30.33,10.0,NW,6.9,-,N/A,,Overcast,320,2013-03-14 02:55:00
11:15 PM,28.4,21.2,74,30.34,10.0,NW,9.2,-,N/A,,Overcast,310,2013-03-14 03:15:00
11:35 PM,28.4,21.2,74,30.34,10.0,WNW,5.8,-,N/A,,Overcast,300,2013-03-14 03:35:00
11:55 PM,28.4,21.2,74,30.34,10.0,NW,5.8,-,N/A,,Overcast,310,2013-03-14 03:55:00